Welcome to the New NWS' Forecast!
Most changes are behind the scenes, but click here for differences you might notice.
Latest weather observations around

Anniston Metro Airport (KANB)

Using English Units (Switch to International System of Units)
Date/ Time (CDT) Wind (mph) Vis. (mi) Weather Sky Cond. Temp (°F) Rel. Humidity Wind Chill (°F) Heat Index (°F) Pressure Precip. (in)
Air Dwpt 6 hour Altimeter (inHg) Sea level (inHg) 1 hr 3 hr 6 hr
Max Min
Jul 19 20:53 ENE 6 10 Clear CLR 75 71     88%   76 29.97 29.95      
Jul 19 19:53 E 3 10 Clear CLR 75 72     90%   76 29.96 29.93 0    
Jul 19 18:53 Calm 10 Light Rain FEW070 SCT100 BKN120 76 72     88%   77 29.95 29.93 0   1
Jul 19 18:20 Calm 10 Mostly Clear FEW120 76 72     88%   77 29.96   0    
Jul 19 18:10   10 Mostly Clear FEW025 FEW120 75 72     90%   76 29.96   0    
Jul 19 17:53 ENE 5 10 Thunderstorms and Rain SCT032 SCT110 75 72     90%   76 29.95 29.93 0    
Jul 19 17:46 NE 6 8 Light Rain BKN032 BKN070 OVC090 75 72     90%   76 29.96   0    
Jul 19 17:26 ESE 6 3 Thunderstorms and Rain and Fog/Mist BKN039 BKN070 OVC100 74 72     94%   75 29.97   0    
Jul 19 16:57   1.75 Thunderstorms and Heavy Rain and Fog/Mist SCT040 BKN055 OVC070 75 72     90%   76 29.97   0    
Jul 19 16:53   3 Thunderstorms and Heavy Rain BKN055 BKN070 OVC090 77 72     84%   78 29.96 29.93 0    
Jul 19 15:53 SSE 7 10 Clear CLR 90 71     54%   96 29.91 29.87      
Jul 19 14:53 Calm 10 Clear CLR 92 65     41%   94 29.9 29.86      
Jul 19 14:43 SSW 5 10 Clear CLR 92 66     43%   95 29.9        
Jul 19 14:28 S 3 10 Clear CLR 92 64     40%   94 29.91        
Jul 19 13:53 3 10 Clear CLR 92 66     43%   95 29.93 29.89      
Jul 19 12:53 3 10 Clear CLR 91 67     45%   94 29.94 29.91      
Jul 19 11:53 SE 3 10 Clear CLR 89 69     52%   94 29.97 29.93      
Jul 19 10:53 ENE 5 10 Clear CLR 87 70     57%   92 29.98 29.95      
Jul 19 09:53 6 10 Clear CLR 83 70     65%   87 29.98 29.94      
Jul 19 08:53 NE 5 10 Clear CLR 81 68     65%   84 29.98 29.94      
Jul 19 07:53 ENE 5 10 Clear CLR 75 68     79%   76 29.98 29.95      
Jul 19 06:53 NE 3 10 Clear CLR 73 68     84%   74 29.98 29.94      
Jul 19 05:53 ENE 3 10 Clear CLR 70 68     93%     29.95 29.92      
Jul 19 04:53 ENE 3 10 Clear CLR 71 69     93%   72 29.95 29.91      
Jul 19 03:53 Calm 10 Clear CLR 71 69     93%   72 29.93 29.9      
Jul 19 02:53 Calm 10 Clear CLR 73 70     90%   74 29.93 29.89      
Jul 19 01:53 Calm 10 Clear CLR 74 71     91%   75 29.93 29.9      
Jul 19 00:53 Calm 10 Clear CLR 74 71     91%   75 29.94 29.91      
Jul 18 23:53 Calm 10 Clear CLR 75 72     90%   76 29.95 29.91      
Jul 18 22:53 Calm 10 Clear CLR 76 73     91%   77 29.96 29.92      
Jul 18 21:53 Calm 10 Clear CLR 78 73     85%   80 29.96 29.93      
Jul 18 20:53 Calm 10 Clear CLR 80 73     79%   84 29.94 29.91      
Jul 18 19:53 Calm 10 Clear CLR 84 72     67%   90 29.93 29.89      
Jul 18 18:53 NNE 7 10 Clear CLR 89 70     53%   94 29.91 29.88      
Jul 18 17:53 NE 9 10 Clear CLR 92 69     47%   97 29.9 29.86      
Jul 18 16:53 N 8 10 Clear CLR 93 68     44%   97 29.9 29.86      
Jul 18 15:53 NNE 7 10 Mostly Clear FEW055 94 69     45%   99 29.91 29.87      
Jul 18 14:53 N 8 10 Mostly Clear FEW045 92 70     49%   98 29.93 29.9      
Jul 18 13:53 Calm 10 Mostly Clear FEW045 91 72     54%   99 29.96 29.92      
Jul 18 12:53 3 10 Mostly Clear FEW040 91 71     52%   98 29.97 29.93      
Jul 18 11:53 3 10 Partly Cloudy SCT036 89 72     57%   96 29.99 29.95      
Jul 18 10:53 Calm 10 Mostly Clear FEW030 86 74     67%   94 30 29.97      
Jul 18 09:53 Calm 10 Clear CLR 83 75     77%   90 30 29.97      
Jul 18 08:53 Calm 10 Partly Cloudy SCT012 79 74     85%   83 30.02 29.98      
Jul 18 07:53 Calm 6 Fog/Mist SCT002 77 74     90%   79 30.01 29.98      
Jul 18 07:31 SSW 3 3 Clear   75 74     96%   77 30.01        
Jul 18 06:53 SW 3 5 Clear   75 73     94%   77 30.01 29.98      
Jul 18 06:43 Calm 5 Fog/Mist FEW004 75 73     94%   77 30.01        
Jul 18 05:53 WSW 5 6 Fog/Mist BKN047 BKN055 74 73     97%   76 30 29.96      
Jul 18 04:53 SW 3 6 Fog/Mist SCT048 74 72     94%   75 29.97 29.94      
Jul 18 04:34 Calm 6 Fog/Mist FEW022 BKN047 74 72     94%   75 29.97        
Jul 18 04:24 Calm 7 Mostly Cloudy BKN022 BKN047 74 72     94%   75 29.97        
Jul 18 03:53 Calm 9 Clear CLR 73 71     94%   74 29.97 29.93      
Jul 18 02:53 Calm 10 Clear CLR 73 71     94%   74 29.96 29.93      
Jul 18 01:53 ENE 3 10 Clear CLR 74 72     94%   75 29.97 29.94      
Jul 18 00:53 Calm 10 Clear CLR 76 73     91%   77 29.98 29.95      
Jul 17 23:53 Calm 10 Clear CLR 77 73     88%   79 29.99 29.96      
Jul 17 22:53 Calm 10 Partly Cloudy SCT120 76 72     88%   77 30 29.97      
Jul 17 21:53 NNE 3 10 Clear CLR 79 73     82%   82 30.01 29.98      
Jul 17 20:53 E 3 10 Mostly Clear FEW120 82 75     79%   89 30 29.96      
Jul 17 20:22 W 3 10 Mostly Clear FEW034 82 75     79%   89 29.99        
Jul 17 19:53 SW 3 10 Clear CLR 83 74     74%   89 30 29.97      
Jul 17 19:48 Calm 10 Clear CLR 82 73     74%   88 30        
Jul 17 19:36 SW 5 10 Clear CLR 83 74     74%   89 29.99        
Jul 17 19:21 SW 6 10 Clear CLR 83 74     74%   89 29.98        
Jul 17 18:53 SW 7 10 Clear CLR 85 73     68%   92 29.98 29.95      
Jul 17 17:53 SSW 8 10 Clear CLR 87 73     63%   95 29.97 29.93      
Jul 17 16:53 SW 8 10 Clear CLR 88 74     63%   97 29.96 29.93      
Jul 17 15:53 WSW 10 10 Mostly Clear FEW029 FEW035 88 75     66%   98 29.97 29.93      
Jul 17 14:53 WSW 8 10 Clear CLR 89 74     61%   98 29.98 29.94      
Jul 17 13:53 SW 8 10 Clear CLR 89 74     61%   98 30 29.96      
Jul 17 12:53 SW 7 10 Mostly Clear FEW024 87 75     68%   97 30.02 29.99      
Jul 17 11:53 SW 8 10 Clear CLR 85 76     75%   94 30.04 30.01      
Jul 17 11:35 WSW 8 10 Partly Cloudy SCT019 84 75     74%   92 30.05        
Jul 17 11:14 W 9 10 Mostly Cloudy BKN019 84 75     74%   92 30.05        
Jul 17 10:53 WSW 9 10 Partly Cloudy SCT019 84 75     74%   92 30.05 30.02      
Jul 17 10:49 Calm 10 Partly Cloudy SCT019 82 73     74%   88 30.05        
Jul 17 09:53 Calm 10 Cloudy OVC016 81 73     77%   86 30.05 30.02      
Jul 17 09:06 Calm 10 Mostly Cloudy BKN015 80 73     79%   84 30.06        
Jul 17 08:53 Calm 10 Partly Cloudy SCT011 80 74     82%   85 30.06 30.03      
Jul 17 08:04 WSW 5 10 Partly Cloudy SCT013 78 73     85%   80 30.06        
Jul 17 07:53 WSW 5 10 Mostly Cloudy BKN013 77 73     88%   79 30.06 30.03      
Jul 17 07:38 WSW 6 10 Mostly Cloudy SCT008 BKN014 76 73     91%   77 30.06        
Jul 17 06:53 Calm 10 Cloudy BKN007 OVC013 75 73     94%   77 30.05 30.02      
Jul 17 06:48 Calm 10 Cloudy BKN007 OVC012 75 73     94%   77 30.05        
Jul 17 06:15 Calm 10 Cloudy FEW007 OVC012 75 73     94%   77 30.05        
Jul 17 05:53 Calm 10 Cloudy OVC013 74 72     94%   75 30.04 30.01      
Jul 17 04:53 Calm 10 Cloudy OVC014 75 72     90%   76 30.02 29.99      
Jul 17 04:24 SW 3 10 Clear   74 72     94%   75 30.02        
Jul 17 03:53 Calm 9 Clear   73 72     96%   75 30.01 29.98      
Jul 17 02:53 W 3 10 Partly Cloudy FEW050 SCT065 74 72     94%   75 30.01 29.98      
Jul 17 02:18 Calm 10 Mostly Clear FEW019 75 73     94%   77 30.01        
Jul 17 01:53 WSW 3 10 Mostly Cloudy BKN019 75 73     94%   77 30.01 29.98      
Jul 17 01:50 SW 3 10 Mostly Cloudy BKN019 75 73     94%   77 30.01        
Jul 17 00:53 Calm 10 Clear CLR 75 73     94%   77 30.01 29.98      
Jul 16 23:53 Calm 10 Cloudy FEW022 OVC049 77 73     88%   79 30.03 30      
Jul 16 22:53 Calm 10 Mostly Cloudy BKN047 77 73     88%   79 30.04 30.01      
Jul 16 21:53 Calm 10 Cloudy BKN060 OVC095 78 73     85%   80 30.04 30.01      
May 14 23:53 Calm 10 Clear CLR 73 68     84%   74 29.98 29.94      
May 14 10:53 N 7 10 Mostly Clear FEW055 88 63     43%   89 30.05 30.02      
May 13 07:53 E 3 10 Clear CLR 67 62     84%     30.16 30.14      
May 13 01:53 Calm 10 Clear CLR 63 60     90%     30.08 30.06      
May 12 13:53 7 10 Clear CLR 89 56     33%   87 30.12 30.1      
May 12 01:53 Calm 10 Clear CLR 64 61     90%     30.1 30.07      
Notice The following observation data may not be complete
May 11 19:53 Calm 10 Clear CLR   63      %     30.08 30.06      
Jun 11 20:53 Calm 10 Partly Cloudy SCT048 SCT080 80 70     71%   83 30.11 30.08      
Jun 11 08:33 ENE 5 10 Partly Cloudy SCT018 76 69     79%   77 30.19        
Jun 10 18:53 SSE 5 10 Clear CLR 83 62     49%   84 30.05 30.03      
Jun 09 15:53 WSW 8 10 Clear CLR 83 57     41%   82 29.95 29.93      
Jun 09 00:53 Calm 10 Clear CLR 64 60     87%     29.92 29.9